Waarnemingen

Advertentie
Mijn weer
Leutkirch-Herlazhofen, Duitsland (10945): temperatuur & dauwpunt: 12.11.2017 03:00:00 - 18.11.2017 03:00:00 (CET)Leutkirch-Herlazhofen, Duitsland (10945): temperatuur 5cm & temperatuur -5cm: 12.11.2017 03:00:00 - 18.11.2017 03:00:00 (CET)Leutkirch-Herlazhofen, Duitsland (10945): temperatuur -20cm & temperatuur -100cm: 12.11.2017 03:00:00 - 18.11.2017 03:00:00 (CET)Leutkirch-Herlazhofen, Duitsland (10945): windsnelheid & windstoten: 12.11.2017 03:00:00 - 18.11.2017 03:00:00 (CET)Leutkirch-Herlazhofen, Duitsland (10945): windrichting: 12.11.2017 03:00:00 - 18.11.2017 03:00:00 (CET)Leutkirch-Herlazhofen, Duitsland (10945): luchtdruk: 12.11.2017 03:00:00 - 18.11.2017 03:00:00 (CET)Leutkirch-Herlazhofen, Duitsland (10945): zicht: 12.11.2017 03:00:00 - 18.11.2017 03:00:00 (CET)Leutkirch-Herlazhofen, Duitsland (10945): Zonneschijnduur: 12.11.2017 03:00:00 - 18.11.2017 03:00:00 (CET)Leutkirch-Herlazhofen, Duitsland (10945): neerslag: 12.11.2017 03:00:00 - 18.11.2017 03:00:00 (CET)
Datum & Tijd tt [°C] td [°C] tt 5cm [°C] tt -5cm [°C] tt -20cm [°C] tt -100cm [°C] ff [km/u] ff [kn] fx [km/u] fx [kn] dd ppp [hPa] vv [km] sd [min] rr [mm]
18.11.2017 03:00:00 0,8 0,3 0,8 2,7 4,0 8,4 8 4 10 5 ZZW 1025,5 2,0 0 0,0
18.11.2017 02:00:00 1,2 0,1 1,2 2,8 4,0 8,4 6 4 13 7 WZW 1025,6 7 0 0,0
18.11.2017 01:00:00 1,2 0,8 1,3 2,9 4,0 8,4 6 3 8 4 ZZW 1025,9 2,5 0 0,0
18.11.2017 00:00:00 1,2 0,9 1,2 2,9 4,0 8,4 6 3 8 4 Z 1026,4 1,4 0 0,0
17.11.2017 23:00:00 1,7 1,0 1,7 3,0 4,0 8,4 5 3 9 5 OZO 1026,3 2,6 0 0,0
17.11.2017 22:00:00 1,7 0,9 1,7 3,0 4,0 8,4 8 4 11 6 ONO 1026,4 4,0 0 0,0
17.11.2017 21:00:00 1,8 1,0 1,8 3,0 4,0 8,5 8 4 13 7 NO 1026,3 3,4 0 0,0
17.11.2017 20:00:00 1,9 1,1 1,9 3,1 4,0 8,5 6 3 12 7 NNO 1026,3 2,8 0 0,0
17.11.2017 19:00:00 1,8 0,8 1,6 3,2 4,0 8,5 4 2 10 5 N 1026,5 4,5 0 0,0
17.11.2017 18:00:00 1,8 0,9 1,5 3,4 4,0 8,5 8 5 13 7 N 1026,2 3,9 0 0,0
17.11.2017 17:00:00 2,1 0,5 1,6 3,8 3,9 8,5 5 3 10 5 NO 1026,2 6 0 0,0
17.11.2017 16:00:00 2,5 1,1 2,6 4,1 3,8 8,5 6 3 12 6 ONO 1026,3 4,9 0 0,0
17.11.2017 15:00:00 2,3 0,6 3,0 4,2 3,6 8,5 8 4 13 7 ONO 1026,6 5 0 0,0
17.11.2017 14:00:00 2,2 0,6 3,2 4,0 3,5 8,5 8 5 13 7 NO 1026,9 5 0 0,0
17.11.2017 13:00:00 1,7 0,2 2,7 3,8 3,4 8,5 6 3 9 5 ONO 1026,9 4,6 0 0,0
17.11.2017 12:00:00 1,3 -0,4 2,3 3,3 3,3 8,5 6 3 8 5 NNO 1027,5 4,3 0 0,0
17.11.2017 11:00:00 0,9 -1,2 1,9 2,3 3,2 8,5 4 2 7 4 NNO 1027,9 6 0 0,1
17.11.2017 10:00:00 -0,1 -1,8 0,5 1,8 3,2 8,5 7 4 12 7 Z 1028,1 6 0 0,0
17.11.2017 09:00:00 -0,7 -1,8 -0,4 1,4 3,2 8,5 1 1 10 5 Z 1028,6 3,5 0 0,0
17.11.2017 08:00:00 -1,2 -1,8 -1,0 1,3 3,3 8,6 6 3 9 5 Z 1028,1 2,7 0 0,0
17.11.2017 07:00:00 -1,4 -1,9 -1,2 1,3 3,3 8,6 5 3 13 7 ZW 1028,3 1,9 0 0,0
17.11.2017 06:00:00 -1,4 -1,9 -1,2 1,4 3,3 8,6 11 6 18 10 Z 1027,8 1,5 0 0,0
17.11.2017 05:00:00 -1,0 -1,9 -0,9 1,4 3,3 8,6 8 4 13 7 ZW 1028,2 3,2 0 0,0
17.11.2017 04:00:00 -0,8 -1,8 -0,8 1,5 3,4 8,6 9 5 14 7 ZZW 1027,8 3,6 0 0,0
17.11.2017 03:00:00 -0,4 -1,6 -0,5 1,5 3,4 8,6 9 5 15 8 Z 1027,6 4,1 0 0,0
17.11.2017 02:00:00 -0,3 -1,7 -0,3 1,6 3,4 8,6 6 3 16 9 WZW 1027,8 4,5 0 0,0
17.11.2017 01:00:00 -0,3 -2,0 -0,3 1,6 3,4 8,6 9 5 15 8 ZW 1027,8 5 0 0,0
17.11.2017 00:00:00 -0,3 -2,0 -0,3 1,6 3,5 8,6 8 4 12 7 ZZW 1027,5 5 0 0,0
16.11.2017 23:00:00 -0,4 -2,2 -0,4 1,6 3,5 8,6 5 3 9 5 W 1027,5 5 0 0,0
16.11.2017 22:00:00 -0,5 -2,4 -0,5 1,7 3,5 8,6 5 3 11 6 WZW 1027,3 6 0 0,0
16.11.2017 21:00:00 -0,4 -2,3 -0,5 1,8 3,6 8,7 6 4 10 5 WZW 1027,1 6 0 0,0
16.11.2017 20:00:00 -0,3 -2,1 -0,4 1,8 3,6 8,7 6 3 12 6 W 1026,9 6 0 0,0
16.11.2017 19:00:00 -0,2 -2,3 -0,3 1,9 3,6 8,7 8 4 11 6 W 1026,7 7 0 0,0
16.11.2017 18:00:00 -0,2 -2,4 -0,3 2,1 3,6 8,7 6 3 13 7 W 1026,3 8 0 0,0
16.11.2017 17:00:00 -0,1 -2,5 -0,2 2,3 3,6 8,7 7 4 15 8 WZW 1025,9 8 0 0,0
16.11.2017 16:00:00 0,1 -2,4 0,2 2,6 3,5 8,7 9 5 17 9 W 1025,7 8 0 0,0
16.11.2017 15:00:00 0,2 -2,2 0,5 2,8 3,5 8,7 13 7 21 11 WZW 1025,5 9 0 0,0
16.11.2017 14:00:00 0,4 -2,0 1,0 2,9 3,4 8,7 9 5 14 8 W 1025,1 8 0 0,0
16.11.2017 13:00:00 0,4 -2,1 1,3 2,6 3,4 8,7 3 2 8 4 WNW 1025,4 8 0 0,0
16.11.2017 12:00:00 0,0 -2,8 0,8 2,2 3,3 8,7 0 0 6 4 N 1025,9 8 0 0,0
16.11.2017 11:00:00 -0,5 -3,1 0,1 1,8 3,3 8,7 3 2 5 3 OZO 1026,2 9 0 0,0
16.11.2017 10:00:00 -0,9 -3,3 -0,3 1,5 3,3 8,7 4 2 8 4 ONO 1026,2 9 0 0,0
16.11.2017 09:00:00 -1,1 -3,1 -0,8 1,4 3,4 8,8 4 2 8 4 NO 1026,2 8 0 0,0
16.11.2017 08:00:00 -1,2 -3,3 -1,1 1,4 3,4 8,8 5 3 8 5 ONO 1026,0 8 0 0,0
16.11.2017 07:00:00 -1,2 -3,2 -1,2 1,4 3,4 8,8 1 1 9 5 WNW 1025,5 9 0 0,0
16.11.2017 06:00:00 -1,2 -3,2 -1,2 1,4 3,4 8,8 5 3 9 5 O 1025,3 8 0 0,0
16.11.2017 05:00:00 -1,3 -2,9 -1,2 1,4 3,4 8,8 7 4 12 7 ONO 1025,7 7 0 0,0
16.11.2017 04:00:00 -1,2 -2,9 -1,1 1,4 3,5 8,8 10 5 18 10 ZO 1025,4 8 0 0,0
16.11.2017 03:00:00 -1,0 -2,7 -1,0 1,4 3,5 8,8 7 4 20 11 ONO 1026,0 7 0 0,0
16.11.2017 02:00:00 -1,0 -2,7 -1,0 1,5 3,5 8,8 10 6 19 10 ONO 1026,0 7 0 0,0
16.11.2017 01:00:00 -0,7 -2,7 -0,7 1,5 3,6 8,8 9 5 23 13 ONO 1025,9 8 0 0,0
16.11.2017 00:00:00 -0,6 -2,5 -0,6 1,5 3,6 8,8 8 5 19 11 ONO 1026,2 8 0 0,0
15.11.2017 23:00:00 -0,5 -2,3 -0,6 1,6 3,6 8,8 9 5 19 10 ONO 1026,7 8 0 0,0
15.11.2017 22:00:00 -0,5 -2,1 -0,6 1,7 3,7 8,8 9 5 22 12 O 1026,9 8 0 0,0
15.11.2017 21:00:00 -0,4 -2,1 -0,5 1,9 3,7 8,8 10 5 20 11 ONO 1027,3 8 0 0,0
15.11.2017 20:00:00 0,1 -1,5 0,0 2,0 3,7 8,9 9 5 22 12 ONO 1026,9 9 0 0,0
15.11.2017 19:00:00 0,3 -1,1 0,2 2,1 3,7 8,9 11 6 25 13 NO 1026,7 7 0 0,0
15.11.2017 18:00:00 0,4 -0,8 0,3 2,1 3,7 8,9 10 5 18 10 NO 1026,5 6 0 0,0
15.11.2017 17:00:00 0,2 -1,1 -1,0 2,6 3,7 8,9 11 6 21 11 NNO 1026,2 7 13 0,0
15.11.2017 16:00:00 1,1 -1,0 1,2 3,2 3,6 8,9 10 5 21 11 NNO 1026,3 11 59 0,0
15.11.2017 15:00:00 1,5 -0,9 3,1 3,2 3,5 8,9 13 7 25 13 NNO 1026,1 12 58 0,0
15.11.2017 14:00:00 2,2 -1,8 3,4 2,4 3,5 8,9 14 8 23 12 ONO 1026,2 23 60 0,0
15.11.2017 13:00:00 1,4 -1,6 2,7 1,4 3,5 8,9 14 7 23 13 O 1026,9 13 60 0,0
15.11.2017 12:00:00 0,0 -2,9 1,7 1,1 3,5 8,9 15 8 21 12 NO 1027,9 7 58 0,0
15.11.2017 11:00:00 -2,0 -3,5 -1,3 1,1 3,6 8,9 11 6 22 12 ONO 1029,2 8 44 0,0
15.11.2017 10:00:00 -3,2 -4,7 -2,1 1,1 3,6 8,9 12 7 18 10 NO 1029,9 10 54 0,0
15.11.2017 09:00:00 -4,0 -5,4 -2,7 1,1 3,7 8,9 11 6 17 9 NO 1030,1 9 60 0,0
15.11.2017 08:00:00 -5,0 -5,9 -6,3 1,2 3,7 8,9 5 3 13 7 NO 1030,1 8 8 0,0
15.11.2017 07:00:00 -4,9 -6,0 -6,7 1,3 3,8 9,0 5 3 10 5 NO 1029,6 11 0 0,0
15.11.2017 06:00:00 -4,4 -5,6 -6,1 1,4 3,9 9,0 8 4 13 7 N 1029,3 16 0 0,0
15.11.2017 05:00:00 -4,1 -4,9 -6,2 1,5 3,9 9,0 5 3 10 5 N 1029,4 9 0 0,0
15.11.2017 04:00:00 -3,7 -4,2 -6,3 1,6 4,0 9,0 4 2 9 5 N 1029,6 6 0 0,0
15.11.2017 03:00:00 -4,1 -4,6 -6,9 1,6 4,0 9,0 4 2 11 6 NNO 1029,8 4,8 0 0,0
15.11.2017 02:00:00 -3,0 -3,3 -3,3 1,7 4,1 9,0 9 5 15 8 NO 1029,8 0,5 0 0,0
15.11.2017 01:00:00 -2,6 -2,9 -2,5 1,8 4,2 9,0 14 7 18 10 ONO 1029,7 0,2 0 0,0
15.11.2017 00:00:00 -3,0 -3,1 -2,8 1,8 4,2 9,0 5 3 10 5 O 1030,3 0,3 0 0,0
14.11.2017 23:00:00 -3,2 -3,2 -3,4 1,9 4,3 9,0 5 3 9 5 ONO 1030,4 0,2 0 0,0
14.11.2017 22:00:00 -3,9 -4,6 -6,9 2,0 4,4 9,0 3 2 6 3 NNO 1030,7 3,5 0 0,0
14.11.2017 21:00:00 -3,7 -4,3 -6,5 2,1 4,5 9,0 3 2 8 5 Z 1030,5 3,7 0 0,0
14.11.2017 20:00:00 -2,4 -2,8 -5,6 2,3 4,6 9,0 5 3 8 4 OZO 1030,0 4,0 0 0,0
14.11.2017 19:00:00 -2,1 -2,5 -5,3 2,6 4,7 9,0 4 2 5 3 O 1029,6 4,2 0 0,0
14.11.2017 18:00:00 -1,2 -1,9 -4,6 3,1 4,7 9,0 3 2 7 4 NNO 1028,7 7 0 0,0
14.11.2017 17:00:00 -0,1 -1,8 -2,5 4,1 4,6 9,0 5 3 15 8 ONO 1027,8 13 25 0,0
14.11.2017 16:00:00 1,3 -1,2 1,0 5,1 4,4 9,1 9 5 15 8 O 1027,1 16 60 0,0
14.11.2017 15:00:00 2,0 -1,4 4,1 5,5 4,2 9,1 10 5 17 9 ONO 1026,9 24 57 0,0
14.11.2017 14:00:00 2,1 -0,8 4,3 5,4 4,0 9,1 10 5 19 11 ONO 1026,7 19 60 0,0
14.11.2017 13:00:00 1,6 -1,4 3,7 4,7 3,9 9,1 11 6 16 9 ONO 1027,1 11 60 0,0
14.11.2017 12:00:00 0,3 -1,1 3,4 3,3 3,8 9,1 6 4 14 8 NO 1027,6 14 46 0,0
14.11.2017 11:00:00 -1,3 -2,0 -0,1 2,0 3,9 9,1 9 5 14 8 NO 1028,3 4,6 8 0,0
14.11.2017 10:00:00 -1,8 -2,3 -0,7 1,6 3,9 9,1 3 2 7 4 NNW 1028,2 0,5 0 0,0
14.11.2017 09:00:00 -2,5 -2,9 -1,8 1,6 3,9 9,1 5 3 8 4 NO 1028,3 1,7 0 0,0
14.11.2017 08:00:00 -2,6 -2,9 -2,2 1,6 4,0 9,1 4 2 8 4 ONO 1027,8 0,2 0 0,0
14.11.2017 07:00:00 -2,8 -3,2 -3,6 1,6 4,0 9,1 0 0 8 4 N 1027,2 1,0 0 0,0
14.11.2017 06:00:00 -2,2 -2,6 -4,1 1,7 4,1 9,1 7 4 12 6 ONO 1026,4 6 0 0,0
14.11.2017 05:00:00 -1,6 -1,8 -1,3 1,7 4,1 9,1 4 2 8 4 NO 1025,8 0,2 0 0,0
14.11.2017 04:00:00 -2,0 -2,2 -1,6 1,7 4,2 9,1 2 1 5 3 NW 1025,5 0,1 0 0,0
14.11.2017 03:00:00 -1,3 -1,5 -2,1 1,8 4,2 9,1 2 1 8 4 N 1025,0 0,1 0 0,0
14.11.2017 02:00:00 -1,6 -2,0 -3,3 1,8 4,3 9,1 0 0 8 4 N 1024,6 0,2 0 0,0
14.11.2017 01:00:00 -1,1 -1,1 -1,1 1,9 4,4 9,1 5 3 8 4 NW 1024,1 0,1 0 0,0
14.11.2017 00:00:00 -0,3 -0,5 -2,5 2,0 4,4 9,1 0 0 5 3 N 1023,6 3,0 0 0,0
13.11.2017 23:00:00 0,0 -0,4 -1,3 2,4 4,5 9,1 2 1 4 2 Z 1023,2 5 0 0,0
13.11.2017 22:00:00 0,4 0,0 -0,1 2,5 4,5 9,1 3 2 4 2 ZO 1022,8 10 0 0,0
13.11.2017 21:00:00 0,8 0,2 0,4 2,8 4,5 9,2 3 2 5 3 O 1022,1 12 0 0,0
13.11.2017 20:00:00 1,1 0,0 0,4 2,9 4,5 9,2 2 1 6 3 NNO 1021,3 19 0 0,0
13.11.2017 19:00:00 1,0 0,3 0,6 3,0 4,5 9,2 4 2 6 3 NW 1020,8 14 0 0,0
13.11.2017 18:00:00 0,8 0,2 0,7 3,1 4,5 9,2 2 1 5 3 Z 1020,3 12 0 0,0
13.11.2017 17:00:00 1,1 0,1 0,6 3,4 4,5 9,2 3 2 11 6 ZZW 1019,1 20 0 0,0
13.11.2017 16:00:00 1,4 -0,5 1,0 3,6 4,4 9,2 4 2 5 3 ZO 1018,2 32 0 0,0
13.11.2017 15:00:00 1,4 -0,3 1,6 3,3 4,4 9,2 5 3 10 5 O 1017,1 23 2 0,0
13.11.2017 14:00:00 1,1 -0,3 0,9 2,8 4,4 9,2 9 5 21 12 ONO 1016,8 17 0 0,5
13.11.2017 13:00:00 1,1 -0,8 0,7 3,2 4,4 9,2 2 1 19 10 NW 1016,3 6 1 0,1
13.11.2017 12:00:00 1,5 -0,8 1,7 2,6 4,4 9,2 7 4 20 11 NO 1015,8 30 1 0,0
13.11.2017 11:00:00 0,5 -0,4 0,2 2,2 4,5 9,2 5 3 11 6 N 1015,6 6 0 0,4
13.11.2017 10:00:00 0,4 -0,3 -0,1 2,1 4,5 9,2 6 4 10 5 NW 1014,8 3,4 0 0,1
13.11.2017 09:00:00 0,2 -0,4 -0,1 2,1 4,6 9,2 8 4 10 5 WNW 1014,0 3,4 0 0,2
13.11.2017 08:00:00 0,4 -0,5 0,0 2,1 4,7 9,2 6 4 12 6 W 1013,9 7 0 0,0
13.11.2017 07:00:00 0,4 -0,6 -0,1 2,1 4,8 9,2 7 4 13 7 W 1012,6 14 0 0,0
13.11.2017 06:00:00 0,2 -0,6 -0,1 2,1 4,8 9,2 8 4 13 7 W 1011,9 14 0 0,4
13.11.2017 05:00:00 0,2 -0,8 -0,1 2,2 4,9 9,2 8 5 18 10 W 1011,3 2,7 0 0,0
13.11.2017 04:00:00 0,1 -0,6 -0,3 2,3 5,0 9,2 8 4 18 10 WZW 1010,3 12 0 0,0
13.11.2017 03:00:00 0,3 -0,8 -0,1 2,3 5,1 9,1 14 8 21 12 ZW 1010,2 9 0 0,5
13.11.2017 02:00:00 0,4 -0,9 -0,1 2,4 5,2 9,1 10 5 18 10 ZW 1010,1 2,6 0 0,0
13.11.2017 01:00:00 0,5 -1,3 -0,1 2,4 5,3 9,1 11 6 20 11 WZW 1009,3 42 0 0,0
13.11.2017 00:00:00 0,8 -1,4 0,0 2,4 5,5 9,1 12 7 20 11 WZW 1009,0 54 0 0,0
12.11.2017 23:00:00 1,0 -0,9 0,0 2,4 5,7 9,1 13 7 19 11 ZW 1008,4 66 0 0,0
12.11.2017 22:00:00 1,2 -0,4 0,0 2,5 5,9 9,1 16 9 25 14 W 1007,5 70 0 0,0
12.11.2017 21:00:00 0,8 0,0 -0,1 2,7 6,1 9,1 16 8 23 12 WZW 1007,4 30 0 0,2
12.11.2017 20:00:00 0,8 0,0 -0,1 3,0 6,4 9,1 18 10 28 15 WZW 1007,0 70 0 3,5
12.11.2017 19:00:00 0,5 0,0 -0,1 3,6 6,7 9,2 17 9 45 25 WNW 1005,9 1,2 0 3,4
12.11.2017 18:00:00 2,3 1,0 1,5 4,2 6,9 9,2 32 17 47 25 ZZW 1002,4 13 0 1,8
12.11.2017 17:00:00 0,9 0,1 0,2 5,6 7,0 9,2 19 11 71 38 W 1001,1 5 0 7,9
12.11.2017 16:00:00 7,9 5,8 6,9 7,4 6,9 9,3 26 14 38 20 ZW 996,8 7 0 0,4
12.11.2017 15:00:00 7,4 6,3 7,1 7,4 6,9 9,3 27 15 55 30 ZZW 997,9 14 0 2,4
12.11.2017 14:00:00 7,8 6,5 7,2 7,5 6,8 9,3 34 18 55 30 ZW 999,7 10 0 1,6
12.11.2017 13:00:00 8,3 6,5 7,6 7,6 6,7 9,3 35 19 67 36 ZW 1001,2 14 0 0,2
12.11.2017 12:00:00 8,2 6,8 8,0 7,4 6,6 9,3 34 19 59 32 ZW 1002,3 35 0 2,7
12.11.2017 11:00:00 8,2 7,2 7,8 7,2 6,5 9,3 31 17 55 30 ZW 1003,8 7 0 1,8
12.11.2017 10:00:00 7,9 7,2 7,7 6,8 6,4 9,3 24 13 44 24 ZW 1004,9 6 0 2,3
12.11.2017 09:00:00 7,8 7,0 7,5 6,4 6,4 9,3 25 13 41 22 ZW 1006,0 7 0 3,1
12.11.2017 08:00:00 7,0 6,4 6,6 6,3 6,4 9,4 20 11 30 16 ZW 1007,1 10 0 3,1
12.11.2017 07:00:00 6,4 6,0 6,1 6,3 6,3 9,4 14 8 24 13 WZW 1007,9 1,9 0 4,0
12.11.2017 06:00:00 6,7 6,1 6,4 6,3 6,3 9,4 18 10 34 18 ZW 1008,3 4,4 0 2,2
12.11.2017 05:00:00 7,0 6,3 6,6 6,2 6,2 9,4 24 13 38 21 ZW 1008,7 9 0 1,7
12.11.2017 04:00:00 6,8 6,2 6,4 6,1 6,2 9,4 23 12 32 17 ZW 1009,3 7 0 1,3
12.11.2017 03:00:00 6,7 6,0 6,2 6,0 6,2 9,5 21 12 33 18 ZW 1010,2 6 0 2,6

tt = temperatuur
td = dauwpunt
tt 5cm = temperatuur 5cm
tt -5cm = temperatuur -5cm
tt -20cm = temperatuur -20cm
tt -100cm = temperatuur -100cm
ff = windsnelheid
fx = windstoten
dd = windrichting
ppp = luchtdruk
vv = zicht
sd = Zonneschijnduur
rr = neerslag

Weerstations in de omgeving